• In Czech Republic
  • List of Countries
  • For 7 days
  • Water Temperature
  • Satellite Maps
  • Weather Map
  • Weather Widgets
  • user-avatar
    Login

    Hourly Weather Novaya Kazanka

    Today, 22 July, Sunday

    Time Temperature Precipitation Wind Pressure Humidity
    00:00 +29°C° 0 mm 4 mps 753 mmHg 49%
    01:00 +28°C° 0 mm 4 mps 753 mmHg 51%
    02:00 +28°C° 0 mm 3 mps 753 mmHg 54%
    03:00 +27°C° 0 mm 2 mps 753 mmHg 57%
    04:00 +28°C° 0 mm 3 mps 753 mmHg 56%
    05:00 +28°C° 0 mm 3 mps 753 mmHg 56%
    06:00 +28°C° 0 mm 3 mps 753 mmHg 55%
    07:00 +29°C° 0 mm 3 mps 754 mmHg 51%
    08:00 +30°C° 0 mm 3 mps 754 mmHg 46%
    09:00 +33°C° 0 mm 4 mps 754 mmHg 41%
    10:00 +33°C° 0 mm 3 mps 754 mmHg 39%
    11:00 +34°C° 0 mm 3 mps 754 mmHg 37%
    12:00 +35°C° 0 mm 3 mps 754 mmHg 35%
    13:00 +35°C° 0 mm 3 mps 753 mmHg 34%
    14:00 +35°C° 0 mm 3 mps 753 mmHg 33%
    15:00 +35°C° 0 mm 2 mps 753 mmHg 32%
    16:00 +35°C° 0 mm 2 mps 753 mmHg 32%
    17:00 +35°C° 0 mm 2 mps 753 mmHg 32%
    18:00 +35°C° 0 mm 2 mps 753 mmHg 32%
    19:00 +35°C° 0 mm 2 mps 754 mmHg 35%
    20:00 +34°C° 0 mm 3 mps 754 mmHg 37%
    21:00 +33°C° 0 mm 3 mps 754 mmHg 39%
    22:00 +31°C° 0 mm 3 mps 754 mmHg 42%
    23:00 +31°C° 0 mm 3 mps 754 mmHg 45%

    Tomorrow, 23 July, Monday

    Time Temperature Precipitation Wind Pressure Humidity
    00:00 +30°C° 0 mm 3 mps 754 mmHg 48%
    01:00 +30°C° 0 mm 3 mps 755 mmHg 49%
    02:00 +29°C° 0 mm 3 mps 755 mmHg 50%
    03:00 +29°C° 0 mm 3 mps 755 mmHg 52%
    04:00 +29°C° 0.1 mm 4 mps 755 mmHg 49%
    05:00 +30°C° 0.1 mm 5 mps 755 mmHg 47%
    06:00 +30°C° 0.1 mm 5 mps 755 mmHg 45%
    07:00 +32°C° 0.3 mm 5 mps 755 mmHg 42%
    08:00 +33°C° 0.3 mm 6 mps 756 mmHg 39%
    09:00 +34°C° 0.3 mm 6 mps 756 mmHg 36%
    10:00 +35°C° 0.1 mm 6 mps 756 mmHg 35%
    11:00 +36°C° 0.1 mm 6 mps 756 mmHg 33%
    12:00 +37°C° 0.1 mm 5 mps 756 mmHg 31%
    13:00 +36°C° 0 mm 5 mps 756 mmHg 31%
    14:00 +36°C° 0 mm 5 mps 756 mmHg 31%
    15:00 +36°C° 0 mm 4 mps 756 mmHg 31%
    16:00 +36°C° 0.1 mm 5 mps 756 mmHg 32%
    17:00 +36°C° 0.1 mm 5 mps 756 mmHg 32%
    18:00 +36°C° 0.1 mm 5 mps 756 mmHg 32%
    19:00 +35°C° 0.2 mm 5 mps 756 mmHg 34%
    20:00 +34°C° 0.2 mm 5 mps 757 mmHg 35%
    21:00 +33°C° 0.2 mm 5 mps 757 mmHg 36%
    22:00 +33°C° 0.3 mm 6 mps 757 mmHg 35%
    23:00 +32°C° 0.3 mm 6 mps 757 mmHg 34%

    Day after tomorrow, 24 July, Tuesday

    Time Temperature Precipitation Wind Pressure Humidity
    00:00 +30°C° 0.3 mm 7 mps 758 mmHg 32%
    01:00 +30°C° 0.1 mm 7 mps 758 mmHg 30%
    02:00 +29°C° 0.1 mm 7 mps 758 mmHg 28%
    03:00 +29°C° 0.1 mm 7 mps 758 mmHg 25%
    04:00 +29°C° 0 mm 7 mps 758 mmHg 24%
    05:00 +29°C° 0 mm 7 mps 759 mmHg 23%
    06:00 +29°C° 0 mm 8 mps 759 mmHg 21%
    07:00 +31°C° 0 mm 8 mps 759 mmHg 21%
    08:00 +32°C° 0 mm 8 mps 759 mmHg 22%
    09:00 +33°C° 0 mm 8 mps 760 mmHg 22%
    10:00 +34°C° 0 mm 8 mps 760 mmHg 20%
    11:00 +35°C° 0 mm 8 mps 760 mmHg 18%
    12:00 +35°C° 0 mm 8 mps 760 mmHg 16%
    13:00 +35°C° 0 mm 8 mps 760 mmHg 16%
    14:00 +35°C° 0 mm 8 mps 760 mmHg 15%
    15:00 +35°C° 0 mm 8 mps 760 mmHg 14%
    16:00 +35°C° 0 mm 7 mps 760 mmHg 15%
    17:00 +34°C° 0 mm 7 mps 760 mmHg 15%
    18:00 +34°C° 0 mm 7 mps 760 mmHg 15%
    19:00 +33°C° 0 mm 6 mps 760 mmHg 16%
    20:00 +32°C° 0 mm 5 mps 761 mmHg 17%
    21:00 +32°C° 0 mm 4 mps 761 mmHg 18%
    22:00 +30°C° 0 mm 3 mps 761 mmHg 19%
    23:00 +30°C° 0 mm 3 mps 761 mmHg 19%

    25 July, Wednesday

    Time Temperature Precipitation Wind Pressure Humidity
    00:00 +30°C° 0 mm 3 mps 761 mmHg 20%
    01:00 +30°C° 0 mm 3 mps 761 mmHg 20%
    02:00 +29°C° 0 mm 4 mps 761 mmHg 21%
    03:00 +29°C° 0 mm 4 mps 761 mmHg 21%
    04:00 +29°C° 0 mm 4 mps 761 mmHg 22%
    05:00 +29°C° 0 mm 5 mps 761 mmHg 22%
    06:00 +29°C° 0 mm 5 mps 761 mmHg 23%
    07:00 +30°C° 0 mm 6 mps 762 mmHg 21%
    08:00 +33°C° 0 mm 6 mps 762 mmHg 19%
    09:00 +34°C° 0 mm 7 mps 762 mmHg 17%
    10:00 +35°C° 0 mm 8 mps 762 mmHg 16%
    11:00 +37°C° 0 mm 8 mps 762 mmHg 15%
    12:00 +38°C° 0 mm 8 mps 762 mmHg 14%
    13:00 +38°C° 0 mm 8 mps 761 mmHg 15%
    14:00 +39°C° 0 mm 8 mps 761 mmHg 15%
    15:00 +39°C° 0 mm 8 mps 761 mmHg 15%
    16:00 +39°C° 0 mm 7 mps 761 mmHg 16%
    17:00 +38°C° 0 mm 7 mps 761 mmHg 17%
    18:00 +38°C° 0 mm 7 mps 761 mmHg 18%
    19:00 +36°C° 0 mm 7 mps 761 mmHg 19%
    20:00 +35°C° 0 mm 6 mps 761 mmHg 21%
    21:00 +34°C° 0 mm 6 mps 761 mmHg 23%
    22:00 +33°C° 0 mm 6 mps 761 mmHg 24%
    23:00 +33°C° 0 mm 7 mps 762 mmHg 25%

    26 July, Thursday

    Time Temperature Precipitation Wind Pressure Humidity
    00:00 +32°C° 0 mm 7 mps 762 mmHg 25%
    01:00 +32°C° 0 mm 7 mps 762 mmHg 27%
    02:00 +30°C° 0 mm 7 mps 762 mmHg 28%
    03:00 +30°C° 0 mm 7 mps 762 mmHg 29%
    04:00 +30°C° 0 mm 7 mps 762 mmHg 30%
    05:00 +31°C° 0 mm 8 mps 763 mmHg 32%
    06:00 +31°C° 0 mm 8 mps 763 mmHg 33%
    07:00 +32°C° 0 mm 8 mps 763 mmHg 30%
    08:00 +34°C° 0 mm 8 mps 763 mmHg 27%
    09:00 +35°C° 0 mm 8 mps 763 mmHg 23%
    10:00 +36°C° 0 mm 7 mps 763 mmHg 22%
    11:00 +38°C° 0 mm 7 mps 763 mmHg 21%
    12:00 +38°C° 0 mm 7 mps 763 mmHg 20%
    13:00 +39°C° 0 mm 7 mps 763 mmHg 19%
    14:00 +39°C° 0 mm 6 mps 762 mmHg 19%
    15:00 +39°C° 0 mm 6 mps 762 mmHg 18%
    16:00 +39°C° 0 mm 6 mps 762 mmHg 19%
    17:00 +38°C° 0 mm 6 mps 762 mmHg 19%
    18:00 +38°C° 0 mm 6 mps 762 mmHg 20%
    19:00 +36°C° 0 mm 5 mps 762 mmHg 21%
    20:00 +35°C° 0 mm 5 mps 762 mmHg 22%
    21:00 +34°C° 0 mm 4 mps 762 mmHg 24%
    22:00 +34°C° 0 mm 5 mps 762 mmHg 25%
    23:00 +33°C° 0 mm 5 mps 763 mmHg 26%

    27 July, Friday

    Time Temperature Precipitation Wind Pressure Humidity
    00:00 +33°C° 0 mm 6 mps 763 mmHg 27%
    01:00 +32°C° 0 mm 6 mps 763 mmHg 28%
    02:00 +30°C° 0 mm 6 mps 763 mmHg 29%
    03:00 +30°C° 0 mm 6 mps 763 mmHg 29%
    04:00 +30°C° 0 mm 6 mps 763 mmHg 29%
    05:00 +30°C° 0 mm 6 mps 763 mmHg 29%
    06:00 +30°C° 0 mm 6 mps 763 mmHg 29%
    07:00 +33°C° 0 mm 7 mps 763 mmHg 26%
    08:00 +34°C° 0 mm 7 mps 763 mmHg 23%
    09:00 +36°C° 0 mm 7 mps 763 mmHg 21%
    10:00 +38°C° 0 mm 6 mps 763 mmHg 20%
    11:00 +39°C° 0 mm 6 mps 763 mmHg 19%
    12:00 +39°C° 0 mm 6 mps 763 mmHg 18%
    13:00 +39°C° 0 mm 6 mps 763 mmHg 17%
    14:00 +40°C° 0 mm 5 mps 762 mmHg 16%
    15:00 +40°C° 0 mm 5 mps 762 mmHg 16%
    16:00 +39°C° 0 mm 5 mps 762 mmHg 16%
    17:00 +39°C° 0 mm 5 mps 762 mmHg 16%
    18:00 +39°C° 0 mm 5 mps 762 mmHg 16%
    19:00 +37°C° 0 mm 5 mps 762 mmHg 17%
    20:00 +36°C° 0 mm 5 mps 762 mmHg 17%
    21:00 +35°C° 0 mm 5 mps 762 mmHg 18%
    22:00 +34°C° 0 mm 5 mps 762 mmHg 19%
    23:00 +33°C° 0 mm 5 mps 762 mmHg 20%
    Show more